QPF
0.00 0.00 0.00 0.00 0.00 0.00 0.00 0.00 0.00 0.00 0.00 0.00 0.00 0.00 0.00 0.00 0.00 0.00 0.00 0.00 0.00 0.00 0.00 0.00 0.00 0.00 0.00 0.00 0.00 0.01 0.01 0.02 0.00 0.00 0.00 0.00 0.00 0.00 0.00 0.00 0.00 0.00 0.00
0.00 0.00 0.00 0.00 0.00 0.00 0.00 0.00 0.00 0.00 0.00 0.00 0.00 0.00 0.00 0.00 0.00 0.00 0.00 0.00 0.00 0.00 0.00 0.00 0.00 0.00 0.00 0.00 0.00 0.00 0.00 0.00 0.00 0.00 0.00 0.00 0.00 0.00 0.00 0.00 0.00 0.00 0.00
0.00 0.00 0.00 0.00 0.00 0.00 0.00 0.00 0.00 0.00 0.00 0.00 0.00 0.00 0.00 0.00 0.00 0.00 0.00 0.00 0.00 0.00 0.00 0.00 0.00 0.00 0.00 0.00 0.00 0.00 0.00 0.00 0.00 0.00 0.00 0.00 0.00 0.00 0.00 0.00 0.00 0.00 0.00
0.00 0.00 0.00 0.00 0.00 0.00 0.00 0.00 0.00 0.00 0.00 0.00 0.00 0.00 0.00 0.00 0.00 0.00 0.00 0.00 0.00 0.00 0.00 0.00 0.00 0.00 0.00 0.00 0.00 0.00 0.00 0.00 0.00 0.00 0.00 0.00 0.00 0.00 0.00 0.00 0.00 0.00 0.00
0.00 0.00 0.00 0.00 0.00 0.00 0.00 0.00 0.00 0.00 0.00 0.00 0.00 0.00 0.00 0.00 0.00 0.00 0.00 0.00 0.00 0.00 0.00 0.00 0.00 0.00 0.00 0.00 0.00 0.00 0.00 0.00 0.00 0.00 0.00 0.00 0.00 0.00 0.00 0.00 0.00 0.00 0.00
0.00 0.00 0.00 0.00 0.00 0.00 0.00 0.00 0.00 0.00 0.00 0.00 0.00 0.00 0.00 0.00 0.00 0.00 0.00 0.00 0.00 0.00 0.00 0.00 0.00 0.00 0.00 0.01 0.00 0.00 0.00 0.00 0.00 0.00 0.00 0.00 0.00 0.00 0.00 0.00 0.00 0.00 0.00
0.00 0.00 0.00 0.00 0.00 0.00 0.00 0.00 0.00 0.00 0.00 0.00 0.00 0.00 0.00 0.00 0.00 0.00 0.00 0.00 0.00 0.00 0.00 0.00 0.00 0.00 0.00 0.00 0.01 0.01 0.00 0.00 0.00 0.00 0.00 0.00 0.00 0.00 0.00 0.00 0.00 0.00 0.00
0.00 0.00 0.00 0.00 0.00 0.00 0.00 0.00 0.00 0.00 0.00 0.00 0.00 0.00 0.00 0.00 0.00 0.00 0.00 0.00 0.00 0.00 0.00 0.00 0.00 0.00 0.00 0.00 0.00 0.00 0.00 0.00 0.00 0.00 0.00 0.00 0.00 0.00 0.00 0.00 0.00 0.00 0.00
0.00 0.00 0.00 0.00 0.00 0.00 0.00 0.00 0.00 0.00 0.00 0.00 0.00 0.00 0.00 0.00 0.00 0.00 0.00 0.00 0.00 0.00 0.00 0.00 0.00 0.00 0.00 0.00 0.00 0.00 0.00 0.00 0.00 0.00 0.00 0.00 0.00 0.00 0.00 0.00 0.00 0.00 0.00
0.00 0.00 0.00 0.00 0.00 0.00 0.00 0.00 0.00 0.00 0.00 0.00 0.00 0.00 0.00 0.00 0.00 0.00 0.00 0.00 0.00 0.00 0.00 0.00 0.00 0.00 0.00 0.00 0.00 0.00 0.00 0.00 0.00 0.00 0.00 0.00 0.00 0.00 0.00 0.00 0.00 0.00 0.00
0.00 0.00 0.00 0.00 0.00 0.00 0.00 0.00 0.00 0.00 0.00 0.00 0.00 0.00 0.00 0.00 0.00 0.00 0.00 0.00 0.00 0.00 0.00 0.00 0.00 0.00 0.00 0.00 0.00 0.00 0.00 0.00 0.00 0.00 0.00 0.00 0.00 0.00 0.00 0.00 0.00 0.00 0.00
0.00 0.00 0.00 0.00 0.00 0.00 0.00 0.00 0.00 0.00 0.00 0.00 0.00 0.00 0.00 0.00 0.00 0.00 0.00 0.00 0.00 0.00 0.00 0.00 0.00 0.00 0.00 0.00 0.00 0.00 0.00 0.00 0.00 0.00 0.00 0.00 0.00 0.00 0.00 0.00 0.00 0.00 0.00
0.00 0.00 0.00 0.00 0.00 0.00 0.00 0.00 0.00 0.00 0.00 0.00 0.00 0.00 0.00 0.00 0.00 0.00 0.00 0.00 0.00 0.00 0.00 0.00 0.00 0.00 0.00 0.00 0.00 0.00 0.00 0.00 0.00 0.00 0.00 0.00 0.00 0.00 0.00 0.00 0.00 0.00 0.00
0.00 0.00 0.00 0.00 0.00 0.00 0.00 0.00 0.00 0.00 0.00 0.00 0.00 0.00 0.00 0.00 0.00 0.00 0.00 0.00 0.00 0.00 0.00 0.00 0.00 0.00 0.00 0.00 0.00 0.00 0.00 0.00 0.00 0.00 0.00 0.00 0.00 0.00 0.00 0.00 0.00 0.00 0.00
0.00 0.00 0.00 0.00 0.00 0.00 0.00 0.00 0.00 0.00 0.00 0.00 0.00 0.00 0.00 0.00 0.00 0.00 0.00 0.00 0.00 0.00 0.00 0.00 0.00 0.00 0.00 0.00 0.00 0.00 0.00 0.00 0.00 0.00 0.00 0.00 0.00 0.00 0.00 0.00 0.00 0.00 0.00
0.00 0.00 0.00 0.00 0.00 0.00 0.00 0.00 0.00 0.00 0.00 0.00 0.00 0.00 0.00 0.00 0.00 0.00 0.00 0.00 0.00 0.00 0.00 0.00 0.00 0.00 0.00 0.00 0.00 0.00 0.00 0.00 0.00 0.00 0.00 0.00 0.00 0.00 0.00 0.00 0.00 0.00 0.00
0.00 0.00 0.00 0.00 0.00 0.00 0.00 0.00 0.00 0.00 0.00 0.00 0.00 0.00 0.00 0.00 0.00 0.00 0.00 0.00 0.00 0.00 0.00 0.00 0.00 0.00 0.00 0.00 0.00 0.00 0.00 0.00 0.00 0.00 0.00 0.00 0.00 0.00 0.00 0.00 0.00 0.00 0.00
0.00 0.00 0.00 0.00 0.00 0.00 0.00 0.00 0.00 0.00 0.00 0.00 0.00 0.00 0.00 0.00 0.00 0.00 0.00 0.00 0.00 0.00 0.00 0.00 0.00 0.00 0.00 0.00 0.00 0.00 0.00 0.00 0.00 0.00 0.00 0.00 0.00 0.00 0.00 0.00 0.00 0.00 0.00
0.00 0.00 0.00 0.00 0.00 0.00 0.00 0.00 0.00 0.00 0.00 0.00 0.00 0.00 0.00 0.00 0.00 0.00 0.00 0.00 0.00 0.00 0.00 0.00 0.00 0.00 0.00 0.00 0.00 0.00 0.00 0.00 0.00 0.00 0.00 0.00 0.00 0.00 0.00 0.00 0.00 0.00 0.00
0.00 0.00 0.00 0.00 0.00 0.00 0.00 0.00 0.00 0.00 0.00 0.00 0.00 0.00 0.00 0.00 0.00 0.00 0.00 0.00 0.00 0.00 0.00 0.00 0.00 0.00 0.00 0.00 0.00 0.00 0.00 0.00 0.00 0.00 0.00 0.00 0.00 0.00 0.00 0.00 0.00 0.00 0.00
0.00 0.00 0.00 0.00 0.00 0.00 0.00 0.00 0.00 0.00 0.00 0.00 0.00 0.00 0.00 0.00 0.00 0.00 0.00 0.00 0.00 0.00 0.00 0.00 0.00 0.00 0.00 0.00 0.00 0.00 0.00 0.00 0.00 0.00 0.00 0.00 0.00 0.00 0.00 0.00 0.00 0.00 0.00
0.00 0.00 0.00 0.00 0.00 0.00 0.00 0.00 0.00 0.00 0.00 0.00 0.00 0.00 0.00 0.00 0.00 0.00 0.00 0.00 0.00 0.00 0.00 0.00 0.00 0.00 0.00 0.00 0.00 0.00 0.01 0.00 0.00 0.00 0.00 0.00 0.00 0.00 0.00 0.00 0.00 0.00 0.00
0.00 0.00 0.00 0.00 0.00 0.00 0.00 0.00 0.00 0.00 0.00 0.00 0.00 0.00 0.00 0.00 0.00 0.00 0.00 0.00 0.00 0.00 0.00 0.00 0.00 0.00 0.00 0.00 0.00 0.01 0.01 0.01 0.00 0.00 0.00 0.00 0.00 0.00 0.00 0.00 0.00 0.00 0.00
0.00 0.00 0.00 0.00 0.00 0.00 0.00 0.00 0.00 0.00 0.00 0.00 0.00 0.00 0.00 0.00 0.00 0.00 0.00 0.00 0.00 0.00 0.00 0.00 0.00 0.00 0.00 0.00 0.01 0.01 0.01 0.01 0.00 0.00 0.00 0.00 0.00 0.00 0.00 0.00 0.00 0.00 0.00
0.00 0.00 0.00 0.00 0.00 0.00 0.00 0.00 0.00 0.00 0.00 0.00 0.00 0.00 0.00 0.00 0.00 0.00 0.00 0.00 0.00 0.00 0.00 0.00 0.01 0.01 0.01 0.01 0.02 0.02 0.02 0.01 0.00 0.00 0.00 0.00 0.00 0.00 0.00 0.00 0.00 0.00 0.00
0.00 0.00 0.00 0.00 0.00 0.00 0.00 0.00 0.00 0.00 0.00 0.00 0.00 0.00 0.00 0.00 0.00 0.00 0.00 0.00 0.01 0.01 0.01 0.01 0.01 0.02 0.02 0.02 0.02 0.02 0.01 0.01 0.00 0.00 0.00 0.00 0.00 0.00 0.00 0.00 0.00 0.00 0.00
MSLP
1018.66 1018.57 1018.55 1018.39 1018.26 1018.13 1018.02 1017.75 1017.45 1017.46 1017.36 1017.27 1017.07 1016.75 1016.42 1016.07 1015.75 1015.55 1015.29 1014.94 1014.60 1014.24 1013.85 1013.38 1013.11 1012.80 1012.63 1012.44 1012.13 1011.95 1011.88 1012.00 1012.06 1011.63 1011.42 1011.09 1011.02 1011.09 1011.06 1010.98 1010.90 1010.89 1011.01
1018.16 1018.17 1018.15 1018.10 1017.99 1017.70 1017.53 1017.32 1017.24 1017.23 1017.21 1017.13 1016.90 1016.64 1016.38 1016.09 1015.84 1015.62 1015.37 1015.17 1014.92 1014.53 1014.17 1013.93 1013.49 1012.99 1012.70 1012.67 1012.47 1012.45 1012.44 1012.29 1012.35 1012.30 1011.92 1011.71 1011.53 1011.36 1011.41 1011.36 1011.36 1011.34 1011.43
1017.72 1017.87 1017.93 1017.85 1017.61 1017.33 1017.13 1016.97 1016.93 1016.97 1017.00 1016.93 1016.81 1016.59 1016.30 1016.03 1015.79 1015.64 1015.46 1015.25 1014.87 1014.49 1014.15 1013.90 1013.66 1013.49 1013.32 1013.28 1013.10 1012.74 1012.46 1012.37 1012.40 1012.42 1012.24 1011.90 1011.70 1011.55 1011.51 1011.58 1011.71 1011.79 1011.72
1017.32 1017.62 1017.68 1017.53 1017.20 1017.00 1016.83 1016.74 1016.70 1016.72 1016.77 1016.75 1016.59 1016.43 1016.22 1015.98 1015.79 1015.66 1015.40 1015.10 1014.74 1014.33 1014.02 1013.74 1013.49 1013.29 1013.21 1013.08 1013.02 1012.88 1012.71 1012.59 1012.43 1012.31 1012.14 1012.06 1011.86 1011.70 1011.97 1012.25 1012.13 1012.11 1012.24
1016.97 1017.19 1017.15 1016.97 1016.77 1016.64 1016.57 1016.49 1016.40 1016.39 1016.45 1016.45 1016.45 1016.37 1016.19 1016.01 1015.87 1015.74 1015.45 1015.09 1014.71 1014.24 1013.90 1013.72 1013.61 1013.60 1013.48 1013.25 1013.06 1013.00 1012.91 1012.84 1012.71 1012.61 1012.51 1012.34 1012.51 1012.67 1012.96 1013.07 1012.89 1012.75 1012.72
1016.42 1016.56 1016.61 1016.59 1016.44 1016.31 1016.24 1016.21 1016.20 1016.27 1016.29 1016.24 1016.15 1016.04 1015.93 1015.88 1015.83 1015.77 1015.51 1015.15 1014.71 1014.43 1014.17 1013.97 1013.77 1013.73 1013.59 1013.54 1013.53 1013.48 1013.37 1013.25 1013.17 1013.11 1013.09 1013.28 1013.61 1013.91 1013.97 1013.76 1013.33 1013.07 1013.19
1015.90 1016.08 1016.22 1016.22 1016.18 1015.96 1015.87 1015.87 1015.92 1016.04 1016.01 1015.93 1015.88 1015.86 1015.79 1015.62 1015.47 1015.41 1015.31 1015.10 1014.76 1014.54 1014.35 1014.19 1013.99 1014.02 1013.90 1013.76 1013.72 1013.75 1013.75 1013.65 1013.76 1013.64 1013.52 1013.86 1014.00 1014.37 1014.45 1014.24 1014.19 1014.10 1013.75
1015.50 1015.60 1015.65 1015.75 1015.71 1015.64 1015.67 1015.62 1015.59 1015.65 1015.66 1015.53 1015.38 1015.28 1015.23 1015.07 1015.00 1015.02 1014.99 1014.86 1014.70 1014.51 1014.40 1014.32 1014.23 1014.10 1013.97 1013.87 1013.78 1013.83 1013.96 1014.01 1013.93 1013.91 1013.95 1014.21 1014.29 1014.37 1014.34 1014.46 1014.45 1014.47 1014.24
1015.09 1015.08 1015.13 1015.31 1015.30 1015.31 1015.32 1015.33 1015.27 1015.23 1015.17 1015.04 1014.89 1014.85 1014.84 1014.65 1014.56 1014.55 1014.56 1014.53 1014.35 1014.12 1013.94 1013.95 1014.06 1014.08 1013.97 1013.84 1013.73 1013.81 1014.00 1014.09 1014.05 1014.08 1014.12 1014.21 1014.31 1014.37 1014.36 1014.45 1014.73 1014.82 1014.63
1014.41 1014.38 1014.50 1014.59 1014.74 1014.71 1014.65 1014.69 1014.54 1014.53 1014.52 1014.50 1014.44 1014.34 1014.25 1014.15 1014.04 1014.01 1014.05 1014.14 1014.08 1013.90 1013.60 1013.53 1013.67 1013.70 1013.70 1013.68 1013.66 1013.64 1013.73 1013.79 1013.83 1013.97 1014.26 1014.38 1014.62 1014.69 1014.76 1014.93 1014.97 1015.17 1014.98
1013.58 1013.62 1013.70 1013.66 1013.77 1013.64 1013.75 1013.86 1013.90 1014.05 1014.10 1014.07 1014.04 1013.79 1013.72 1013.60 1013.43 1013.44 1013.49 1013.66 1013.75 1013.68 1013.62 1013.63 1013.65 1013.60 1013.59 1013.56 1013.48 1013.52 1013.53 1013.66 1013.74 1014.00 1014.30 1014.57 1014.85 1014.97 1015.01 1014.98 1014.88 1014.93 1014.83
1013.05 1013.14 1013.12 1013.01 1013.04 1013.04 1013.33 1013.38 1013.51 1013.64 1013.69 1013.56 1013.56 1013.34 1012.99 1012.80 1012.72 1012.68 1012.75 1012.90 1013.10 1013.33 1013.31 1013.24 1013.28 1013.41 1013.42 1013.43 1013.51 1013.49 1013.53 1013.63 1013.89 1014.19 1014.51 1014.73 1014.96 1015.07 1014.84 1014.84 1014.75 1014.74 1014.52
1012.54 1012.48 1012.44 1012.40 1012.37 1012.44 1012.77 1012.85 1013.03 1013.10 1013.22 1013.09 1013.10 1012.90 1012.43 1012.15 1012.04 1011.98 1012.01 1012.10 1012.29 1012.55 1012.71 1012.81 1012.92 1013.12 1013.26 1013.40 1013.44 1013.44 1013.53 1013.84 1014.14 1014.34 1014.47 1014.67 1014.88 1014.90 1014.99 1014.71 1014.64 1014.60 1014.67
1012.17 1011.99 1011.93 1011.97 1011.92 1011.97 1012.01 1012.14 1012.26 1012.37 1012.41 1012.36 1012.42 1012.23 1011.90 1011.69 1011.65 1011.53 1011.51 1011.47 1011.59 1011.92 1012.18 1012.44 1012.58 1012.81 1012.96 1013.10 1013.25 1013.36 1013.50 1013.68 1013.91 1014.10 1014.36 1014.45 1014.53 1014.74 1015.03 1014.89 1015.09 1015.06 1015.27
1011.64 1011.59 1011.54 1011.51 1011.49 1011.42 1011.36 1011.35 1011.38 1011.21 1011.23 1011.21 1011.19 1011.22 1011.25 1010.95 1010.57 1010.53 1010.69 1010.95 1011.07 1011.22 1011.80 1012.27 1012.57 1012.71 1012.89 1013.00 1013.17 1013.26 1013.33 1013.47 1013.73 1014.01 1014.35 1014.59 1014.79 1014.82 1015.00 1014.97 1015.14 1015.50 1015.60
1011.57 1011.33 1011.17 1011.12 1011.06 1011.03 1010.93 1010.65 1010.34 1010.22 1010.15 1010.09 1010.04 1010.11 1009.98 1009.77 1009.61 1009.66 1009.70 1009.82 1010.09 1010.56 1011.17 1011.63 1011.80 1012.05 1012.29 1012.42 1012.56 1012.77 1013.02 1013.22 1013.41 1013.69 1014.06 1014.34 1014.54 1014.73 1015.03 1015.16 1015.41 1015.51 1015.76
1011.28 1011.13 1011.09 1011.01 1010.98 1010.97 1010.79 1010.72 1010.40 1009.66 1009.58 1009.41 1009.30 1009.23 1009.17 1009.03 1008.91 1008.94 1009.02 1009.01 1009.19 1009.72 1010.02 1010.43 1010.70 1010.94 1011.07 1011.28 1011.47 1011.78 1012.02 1012.19 1012.60 1013.13 1013.51 1013.83 1014.16 1014.50 1014.66 1015.02 1015.05 1015.24 1015.41
1010.84 1010.70 1010.70 1010.67 1010.70 1010.77 1010.82 1010.74 1010.50 1010.32 1009.88 1009.38 1008.93 1008.93 1008.66 1008.39 1008.28 1008.34 1008.40 1008.55 1008.81 1008.81 1009.06 1009.28 1009.53 1009.75 1009.94 1010.07 1010.23 1010.42 1010.71 1011.17 1011.69 1012.24 1012.77 1013.13 1013.56 1013.90 1014.28 1014.56 1014.69 1015.01 1015.22
1010.52 1010.51 1010.57 1010.48 1010.27 1010.18 1010.20 1010.30 1010.26 1009.97 1009.81 1009.48 1009.05 1008.58 1008.37 1008.05 1007.70 1007.65 1007.86 1008.02 1008.07 1008.21 1008.49 1008.59 1008.68 1008.84 1008.93 1009.05 1009.12 1009.29 1009.56 1010.02 1010.63 1011.29 1011.88 1012.43 1012.89 1013.24 1013.60 1013.86 1014.01 1014.32 1014.55
1010.45 1010.33 1010.22 1010.14 1010.09 1009.96 1009.91 1009.86 1009.81 1009.52 1009.28 1008.98 1008.67 1008.45 1008.30 1008.06 1007.76 1007.47 1007.29 1007.34 1007.38 1007.36 1007.46 1007.56 1007.67 1007.76 1007.89 1008.01 1008.17 1008.38 1008.74 1009.30 1009.91 1010.63 1011.32 1011.87 1012.20 1012.71 1012.95 1013.16 1013.53 1013.86 1014.00
1010.36 1010.21 1010.04 1009.95 1009.88 1009.69 1009.62 1009.57 1009.40 1009.30 1009.05 1008.66 1008.19 1007.88 1007.63 1007.49 1007.21 1007.04 1006.89 1006.77 1006.69 1006.60 1006.52 1006.54 1006.60 1006.63 1006.77 1007.00 1007.31 1007.61 1007.90 1008.34 1008.86 1009.55 1010.16 1010.89 1011.63 1012.05 1012.35 1012.49 1012.86 1013.29 1013.54
1009.79 1009.65 1009.61 1009.51 1009.33 1009.30 1009.17 1009.03 1008.89 1008.76 1008.53 1008.27 1007.76 1007.41 1007.12 1006.91 1006.71 1006.39 1006.14 1005.96 1005.83 1005.77 1005.66 1005.55 1005.57 1005.64 1005.68 1005.90 1006.21 1006.63 1007.04 1007.51 1008.08 1008.78 1009.50 1010.34 1010.81 1011.36 1011.86 1012.17 1012.35 1012.73 1013.11
1009.34 1009.30 1009.19 1009.01 1008.83 1008.69 1008.60 1008.41 1008.32 1008.15 1007.96 1007.61 1007.19 1006.99 1006.76 1006.34 1006.02 1005.82 1005.53 1005.16 1004.93 1004.83 1004.86 1004.85 1004.84 1004.83 1004.87 1004.99 1005.26 1005.60 1006.07 1006.46 1006.94 1007.72 1008.64 1009.33 1010.13 1010.79 1011.26 1011.72 1011.96 1012.29 1012.64
1008.64 1008.46 1008.33 1008.22 1008.09 1007.90 1007.73 1007.66 1007.57 1007.28 1007.09 1006.95 1006.76 1006.48 1006.18 1005.86 1005.47 1005.15 1004.84 1004.54 1004.31 1004.09 1004.06 1004.09 1004.12 1004.05 1004.11 1004.23 1004.55 1004.91 1005.36 1005.89 1006.35 1006.82 1007.63 1008.60 1009.41 1010.05 1010.76 1011.31 1011.64 1011.90 1012.26
1007.65 1007.48 1007.41 1007.34 1007.29 1007.06 1006.77 1006.70 1006.63 1006.46 1006.27 1006.05 1005.88 1005.73 1005.58 1005.31 1004.90 1004.43 1004.08 1003.82 1003.77 1003.52 1003.35 1003.35 1003.37 1003.44 1003.68 1003.69 1003.93 1004.37 1004.69 1005.42 1005.97 1006.49 1007.23 1007.93 1008.84 1009.65 1010.25 1010.81 1011.23 1011.60 1012.03
1006.87 1006.74 1006.61 1006.54 1006.38 1006.09 1005.87 1005.84 1005.70 1005.55 1005.48 1005.28 1005.05 1004.89 1004.83 1004.67 1004.19 1003.79 1003.33 1003.21 1003.12 1003.10 1002.87 1002.85 1002.90 1002.91 1003.11 1003.33 1003.50 1004.01 1004.42 1004.96 1005.64 1006.14 1006.94 1007.76 1008.60 1009.34 1009.91 1010.42 1010.85 1011.31 1011.74
Thickness
5583 5584 5585 5588 5590 5590 5591 5592 5593 5590 5587 5583 5580 5579 5577 5575 5572 5569 5566 5563 5558 5554 5550 5546 5540 5535 5531 5529 5531 5534 5538 5539 5543 5548 5552 5557 5559 5559 5561 5563 5564 5565 5565
5584 5585 5586 5588 5589 5590 5591 5592 5591 5588 5584 5581 5578 5575 5573 5571 5569 5566 5564 5559 5555 5551 5548 5545 5543 5542 5539 5535 5534 5533 5534 5538 5540 5541 5544 5547 5550 5551 5551 5551 5550 5551 5551
5585 5584 5585 5586 5588 5589 5590 5591 5589 5586 5582 5579 5575 5572 5570 5568 5566 5562 5560 5557 5555 5552 5549 5546 5544 5541 5538 5536 5534 5535 5536 5538 5537 5537 5539 5543 5545 5546 5547 5545 5544 5543 5543
5585 5584 5584 5585 5586 5587 5588 5588 5586 5584 5579 5575 5572 5570 5567 5565 5562 5558 5556 5555 5553 5552 5550 5548 5547 5545 5542 5540 5539 5538 5539 5538 5539 5539 5541 5540 5542 5542 5539 5535 5535 5534 5532
5584 5583 5584 5584 5585 5585 5585 5584 5584 5581 5577 5573 5569 5566 5562 5560 5557 5553 5552 5551 5550 5550 5549 5547 5544 5540 5538 5537 5537 5536 5535 5536 5537 5537 5537 5538 5533 5530 5525 5523 5524 5522 5520
5583 5583 5583 5582 5583 5583 5582 5581 5580 5576 5573 5570 5567 5564 5561 5558 5553 5549 5547 5546 5545 5544 5543 5541 5539 5536 5534 5532 5529 5527 5526 5526 5526 5526 5526 5522 5516 5510 5508 5509 5512 5512 5510
5581 5580 5580 5579 5579 5580 5580 5579 5576 5572 5570 5567 5564 5560 5557 5554 5552 5548 5544 5541 5541 5538 5536 5534 5532 5528 5526 5524 5522 5519 5517 5515 5512 5511 5512 5506 5504 5498 5495 5495 5494 5493 5495
5577 5577 5578 5577 5576 5577 5575 5574 5572 5569 5567 5564 5562 5559 5555 5552 5550 5545 5541 5537 5535 5533 5529 5526 5523 5520 5518 5516 5514 5511 5507 5504 5502 5500 5498 5493 5490 5488 5486 5483 5481 5478 5476
5574 5575 5575 5573 5572 5572 5570 5569 5567 5566 5563 5561 5558 5555 5551 5548 5546 5542 5537 5533 5530 5528 5525 5521 5517 5513 5511 5509 5506 5502 5498 5494 5492 5489 5486 5483 5480 5476 5475 5472 5465 5460 5459
5573 5574 5572 5571 5569 5568 5568 5566 5564 5563 5560 5557 5554 5550 5547 5543 5541 5537 5534 5528 5524 5522 5520 5515 5510 5507 5503 5500 5496 5494 5491 5487 5483 5480 5474 5471 5467 5464 5460 5456 5452 5443 5441
5573 5572 5571 5569 5568 5568 5565 5562 5560 5557 5554 5551 5548 5545 5542 5539 5535 5533 5529 5523 5519 5514 5510 5506 5499 5498 5494 5490 5486 5482 5479 5476 5473 5468 5462 5458 5454 5450 5447 5444 5441 5435 5430
5569 5569 5568 5566 5565 5563 5559 5556 5553 5549 5545 5543 5540 5539 5537 5535 5533 5528 5525 5520 5514 5507 5502 5498 5493 5488 5484 5480 5474 5470 5466 5464 5458 5454 5448 5444 5439 5435 5434 5431 5427 5423 5419
5564 5563 5562 5561 5559 5556 5552 5548 5543 5540 5537 5537 5532 5532 5532 5529 5525 5522 5519 5514 5508 5501 5495 5490 5484 5478 5474 5469 5464 5459 5455 5448 5444 5440 5436 5431 5426 5422 5419 5416 5412 5408 5403
5555 5555 5555 5553 5551 5547 5545 5542 5537 5532 5529 5528 5525 5523 5522 5519 5515 5512 5509 5505 5501 5493 5488 5480 5474 5468 5464 5459 5454 5449 5442 5437 5432 5428 5423 5419 5414 5408 5403 5399 5392 5387 5381
5545 5543 5542 5542 5541 5538 5536 5533 5529 5529 5524 5522 5519 5516 5512 5512 5510 5506 5501 5495 5490 5485 5477 5467 5460 5455 5450 5444 5440 5435 5431 5426 5421 5416 5409 5403 5399 5393 5388 5382 5376 5368 5361
5531 5530 5529 5528 5526 5524 5523 5523 5523 5522 5519 5516 5514 5510 5508 5507 5505 5500 5496 5491 5486 5478 5468 5458 5453 5447 5441 5436 5431 5426 5419 5415 5408 5402 5396 5389 5383 5376 5370 5365 5358 5351 5343
5516 5515 5513 5513 5510 5508 5508 5506 5505 5507 5508 5506 5503 5501 5498 5496 5493 5490 5487 5483 5479 5470 5462 5455 5449 5442 5437 5431 5425 5418 5412 5406 5399 5391 5384 5377 5370 5363 5361 5350 5345 5337 5331
5501 5501 5498 5496 5495 5492 5489 5487 5486 5486 5485 5485 5487 5486 5485 5485 5483 5480 5476 5472 5464 5462 5456 5450 5444 5438 5432 5427 5422 5416 5409 5400 5392 5384 5374 5368 5360 5352 5343 5337 5332 5320 5314
5486 5484 5481 5480 5480 5479 5477 5474 5473 5472 5471 5471 5470 5470 5469 5470 5469 5466 5462 5458 5455 5450 5444 5440 5435 5430 5425 5420 5415 5410 5403 5394 5385 5375 5366 5358 5350 5343 5334 5327 5319 5316 5308
5465 5466 5467 5464 5462 5462 5460 5459 5459 5459 5459 5459 5458 5455 5453 5452 5450 5449 5447 5445 5443 5441 5436 5432 5428 5423 5417 5412 5406 5400 5393 5385 5375 5365 5355 5347 5340 5331 5324 5317 5308 5300 5295
5443 5443 5446 5444 5442 5443 5441 5441 5441 5441 5441 5442 5443 5441 5442 5440 5440 5438 5435 5433 5432 5430 5428 5424 5419 5415 5410 5404 5397 5391 5385 5377 5369 5359 5350 5340 5329 5321 5313 5308 5300 5293 5287
5424 5424 5423 5423 5424 5423 5424 5424 5425 5426 5425 5424 5426 5425 5427 5426 5425 5424 5424 5422 5420 5418 5416 5414 5410 5406 5402 5396 5390 5382 5375 5367 5358 5349 5339 5329 5322 5312 5302 5296 5291 5284 5276
5408 5407 5408 5408 5408 5410 5409 5410 5410 5410 5410 5410 5412 5411 5409 5411 5412 5411 5411 5412 5411 5408 5404 5401 5399 5395 5391 5387 5381 5374 5366 5359 5352 5343 5331 5323 5312 5302 5294 5286 5280 5273 5266
5400 5401 5401 5400 5398 5398 5399 5398 5397 5399 5399 5397 5397 5398 5398 5399 5400 5400 5400 5400 5399 5397 5393 5390 5387 5384 5380 5375 5369 5362 5355 5347 5341 5335 5325 5314 5304 5295 5285 5276 5269 5263 5256
5393 5393 5392 5392 5391 5391 5392 5391 5391 5390 5389 5389 5389 5388 5387 5387 5388 5389 5389 5388 5385 5383 5380 5376 5373 5370 5365 5363 5357 5350 5344 5336 5329 5323 5315 5307 5296 5285 5276 5267 5260 5252 5244
5384 5384 5385 5383 5383 5384 5386 5385 5384 5384 5381 5381 5381 5380 5377 5376 5377 5377 5378 5375 5371 5367 5365 5362 5359 5356 5352 5348 5344 5337 5331 5325 5319 5312 5304 5295 5284 5275 5266 5257 5249 5241 5233